Regional Weather Roundup
Issued by NWS

Home | Current Version | Previous Version | Graphics & Text | Print | Product List | Glossary On
Versions: 1 2 3 4 5 6 7 8 9 10 11 12 13 14 15 16 17 18 19 20 21 22 23 24 25 26 27 28 29 30 31 32 33 34 35 36 37 38 39 40 41 42 43 44 45 46 47 48 49 50
000
ASUS43 KDMX 180807
RWRIA

WEATHER ROUNDUP FOR IOWA
NATIONAL WEATHER SERVICE DES MOINES IA
300 AM CDT SAT APR 18 2015

NOTE: "FAIR" INDICATES FEW OR NO CLOUDS BELOW 12,000 FEET WITH NO
SIGNIFICANT WEATHER AND/OR OBSTRUCTIONS TO VISIBILITY.

* - THESE STATIONS ARE NOT NWS STATIONS...THUS NOT UNDER NWS
QUALITY CONTROL.  THEY ALSO DO NOT REPORT WEATHER SUCH
AS PRECIPITATION OR FOG.

IAZ001>003-012>014-020>022-031>034-043>046-180900-
   NORTHWEST IOWA

CITY           SKY/WX    TMP DP  RH WIND       PRES   REMARKS
CARROLL *      CLOUDY    59  46  63 NW3       29.99F
CHEROKEE *     PTCLDY    54  45  71 CALM      30.01S
DENISON *      CLOUDY    59  48  67 NE5       29.97F
LE MARS *      CLOUDY    59  41  51 NE8       30.01F
ORANGE CITY *  PTCLDY    55  32  41 E7        30.01F
SHELDON *      CLOUDY    52  32  46 NE9       30.01S
SIOUX CITY     CLOUDY    62  45  53 NE5       29.99F
SPENCER        PTCLDY    51  36  56 NE8       30.03S
STORM LAKE *   CLEAR     57  43  58 NE10      30.02S
$$

IAZ055>058-069>071-079>083-090>094-180900-
   SOUTHWEST IOWA

CITY           SKY/WX    TMP DP  RH WIND       PRES   REMARKS
ATLANTIC *     CLOUDY    61  57  88 NE6       29.98F
AUDUBON *      CLOUDY    61  54  77 S3        30.00S
CLARINDA *     CLOUDY    61  59  94 CALM      29.98S
COUNCIL BLFS * CLOUDY    64  57  77 E7        29.97S
CRESTON *      CLOUDY    63  57  82 E7        29.99F
HARLAN  *      CLOUDY    61  57  88 CALM      30.02F
LAMONI         CLOUDY    65  53  65 SE6       29.98F
RED OAK *      CLOUDY    64  55  72 E8        29.96F
SHENANDOAH *   PTCLDY    63  55  77 E3        29.97S
$$

IAZ047>049-059>061-072>074-084-180900-
   CENTRAL IOWA

CITY           SKY/WX    TMP DP  RH WIND       PRES   REMARKS
AMES           MOCLDY    55  49  80 CALM      29.99F
ANKENY *       RAIN      63  57  82 N9        29.99F
CHARITON *     CLOUDY    63  54  72 SE7       29.99S
DES MOINES     CLOUDY    64  56  75 CALM      29.99F
GRINNELL*      MOCLDY    59  50  72 NE6       30.00F
KNOXVILLE *    CLOUDY    63  50  63 SE6       29.98S
MARSHALLTOWN   PTCLDY    59  47  64 E7        29.99F
PELLA *        MOCLDY    61  54  77 E3        30.00F
PERRY *        CLOUDY    59  50  72 CALM      29.99S
$$

IAZ004>006-015-016-023>025-035-036-180900-
   NORTH CENTRAL IOWA

CITY           SKY/WX    TMP DP  RH WIND       PRES   REMARKS
ALGONA *       MOCLDY    54  43  66 NE7       30.03S
CLARION *      CLEAR     54  46  76 E10       30.02S
ESTHERVILLE    MOCLDY    48  33  56 N8        30.03F
FORT DODGE *   MOCLDY    55  45  67 E3        30.02S
MASON CITY     MOCLDY    52  43  71 N5        30.05S
FOREST CITY *  CLOUDY    55  41  58 NE5       30.04S
IOWA FALLS *     N/A     55  45  67 NE6       30.02F
$$

IAZ007>011-017>019-026>030-037>042-050>054-066-180900-
   NORTHEAST IOWA

CITY           SKY/WX    TMP DP  RH WIND       PRES   REMARKS
CEDAR RAPIDS   PTCLDY    53  48  83 CALM      29.99F
CHARLES CITY * CLOUDY    59  43  55 NE9       30.04S
CLINTON *      PTCLDY    52  45  76 N3        30.04S
DECORAH *      CLEAR     55  45  67 CALM      30.04R
DUBUQUE        MOCLDY    55  46  71 CALM      30.02S
MONTICELLO *   CLEAR     54  54 100 CALM      30.01S
OELWEIN *      CLOUDY    55  46  71 NE5       30.03S
WATERLOO       PTCLDY    54  45  71 N5        30.02S
$$

IAZ064-065-067-068-078-180900-
   EAST CENTRAL IOWA

CITY           SKY/WX    TMP DP  RH WIND       PRES   REMARKS
DAVENPORT      CLEAR     52  45  77 N5        30.01F
IOWA CITY      PTCLDY    54  50  86 CALM      30.01F
MT. PLEASANT * PTCLDY    55  50  82 SE5       30.00S
MUSCATINE *    PTCLDY    52  46  82 N5        30.00F
QUAD CITIES    PTCLDY    50  45  83 CALM      29.99F
$$

IAZ062-063-075>077-085>089-095>099-180900-
   SOUTHEAST IOWA

CITY           SKY/WX    TMP DP  RH WIND       PRES   REMARKS
BURLINGTON     CLEAR     58  51  78 S3        30.00S
FAIRFIELD *    CLEAR     59  50  72 SE6       29.99F
FORT MADISON * CLEAR     64  54  68 SE3       30.01S
KEOKUK *       PTCLDY    59  54  82 CALM      30.00S
OSKALOOSA *      N/A     59  50  72 SE5       30.00S
CENTERVILLE *  CLEAR     63  54  72 E5        30.01S
OTTUMWA        MOCLDY    61  50  67 E7        29.99F
WASHINGTON *   PTCLDY    59  54  82 SE3       29.99F
$$

ABBREVIATIONS USED IN REMARKS
   TC - TEMPERATURES IN CELSIUS
  WCI - WIND CHILL INDEX
   HX - HEAT INDEX
  VSB - VISIBILITY
$$



USA.gov is the U.S. government's official web portal to all federal, state and local government web resources and services.